loading
|

MIDAS 4 DEB, 45468

Orbit data source: Space-Track

MIDAS 4 DEB, 45468 is space debris originally from a launch on Sat, 21 Oct 1961 UTC launched from the Air Force Western Test Range (AFWTR). Debris objects in space refer to the collection of defunct objects orbiting the Earth. Examples of debris include non-operational satellites, rocket bodies, and fragments generated from explosions, collisions, or faulty payload assembly.

Loading next visibility...
Next conjunction unknown
Loading greatness...
MIDAS 4 DEB details
Identifier
45468, 1961-028N
Orbit
Active
Last TLE update6 months ago
Origin
Flag of USUSAF SSD (US)
ManufacturerUnknown
MissionSpacecraft
Bus & MotorUnknown bus, Unknown motor
MassUnknown
Launch date (UTC)
1961-10-21 (63 years ago)
Launch vehicleUnknown
Launch site
Air Force Western Test Range (AFWTR)
Object type
Payload
Rocket body
Debris
Shape & HBRUnknown
Radar Cross SectionMedium (>0.1 m² and <1 m²)

Expand to show TLE details & history

TLE from 6 months ago
0 MIDAS 4 DEB
1 45468U 61028N   24098.87203370 -.00000027  00000-0 -96046-2 0  9995
2 45468  95.8584  65.0254 0312667 299.3140  57.6812  8.68912154234904
Epoch: 2024-04-07T20:55Z
Definitive object data (Epoch: 2024-04-07T20:55:43.711Z)
Latitude-0.0001°
Longitude-85.52666°
Altitude3,458.369 km
Speed6.417 km/s
True Right ascension04h 20m 06s
True Declination0° 00' 00"
Sunlit
Object was in daylight at TLE epoch
Predictive object data (real-time)
Latitude34.14056°
Longitude-49.38896°
Altitude3,549.629 km
Speed6.362 km/s
Apparent Right ascension04h 28m 06s
Apparent Declination16° 00' 33"
Sunlit
Object is in daylight
Predictive observer data (real-time)
Local Sidereal Time09:09:36
Azimuth270.278° WNW
Elevation25.123°
Doppler factor1
Orbital elements
Apogee3,926.427 km
Perigee3,301.585 km
Semi-major axis9,992.143 km
Eccentricity0.0312667
Inclination95.8584°
RAAN65.0254°
Arg. of periapsis299.314°
True anomaly60.77212°
Mean anomaly57.6812°
Eccentric anomaly59.22031°
Mean motion2.17298 °/min
BSTAR-0.0096046
Period165.67 mins
No data available

MIDAS 4 DEB Visibility forecast

Observer location: 39.9160978°, -105.1181434

Span
Click to sort rows by Start time (UTC) header in descending order
Start Az.
Max El. time (UTC)
Max El. Az.
Max El.
End time (UTC)
End Az.
15 mins2024-10-14 14:35:33.116Z270.154° WNW2024-10-14 14:37:33.116Z279.334° WNW23.414°2024-10-14 14:50:33.116Z331.422° NNW
32 mins2024-10-14 23:24:33.116Z16.189° NNE2024-10-14 23:39:33.116Z89.148° E39.61°2024-10-14 23:56:33.116Z168.636° S
28 mins2024-10-15 02:08:33.116Z359.853° N2024-10-15 02:22:33.116Z295.059° NW34.553°2024-10-15 02:36:33.116Z235.276° WSW
28 mins2024-10-15 09:48:33.116Z113.727° SE2024-10-15 10:02:33.116Z57.621° ENE30.729°2024-10-15 10:16:33.116Z0.079° NNE
34 mins2024-10-15 12:26:33.116Z181.363° SSW2024-10-15 12:43:33.116Z258.551° W43.016°2024-10-15 13:00:33.116Z347.386° N